Theta_e
292 291 290 289 288 288 288 288 288 290 290 290 289 289 289 289 289 288 288 287 287 287 286 286 286 286 285 285 285 285 285 284 284 284 284 283 283 282 281 281 281 281 281 280 281 281 281 281 280 280 280 280 281 281 280 280 280 280 280 280 279 279 279 278 277 278 280 281 279 279 279 279 278 280 278 279 279 280 280 280 280 280 280 280 280
291 290 289 288 288 288 288 288 288 289 289 289 289 289 288 288 288 288 287 287 287 287 286 286 286 285 285 285 285 285 284 284 283 283 283 282 281 281 280 281 281 280 280 280 280 281 281 280 279 279 280 280 280 280 280 279 279 279 279 278 279 278 279 277 277 277 277 280 279 280 279 279 277 280 278 278 279 280 279 279 279 280 279 280 279
291 291 289 288 287 287 287 287 288 288 288 288 288 288 288 288 288 287 287 286 287 287 286 286 285 285 285 284 284 284 284 283 282 282 282 281 280 279 280 280 280 280 280 280 280 280 280 280 279 279 279 279 279 279 279 279 279 278 278 279 278 278 278 278 277 276 276 277 278 277 278 278 277 278 279 279 279 279 278 278 278 279 280 279 278
290 289 288 288 288 287 287 287 287 287 287 288 287 288 287 287 287 287 287 286 285 286 286 285 285 284 284 283 283 283 282 282 282 281 281 280 279 279 280 280 281 281 280 280 279 279 280 280 279 279 279 278 279 278 279 278 278 278 278 278 278 277 278 277 277 277 276 275 277 277 277 277 277 279 279 279 279 277 277 278 279 279 279 278 278
290 289 288 286 286 286 286 286 286 286 287 287 287 287 287 286 286 286 286 285 285 285 285 285 284 284 283 283 282 282 282 281 281 280 280 280 280 280 280 280 281 281 280 280 280 280 280 280 279 279 279 279 279 278 279 277 278 278 278 278 277 278 277 277 277 277 275 275 276 277 278 277 278 278 279 277 277 277 277 277 278 277 277 278 278
290 290 288 287 286 285 285 285 286 286 286 286 287 287 286 286 286 286 285 285 284 284 284 284 284 284 283 282 282 282 281 281 280 280 280 280 280 280 280 280 281 281 280 279 279 280 280 280 279 279 279 279 279 278 278 277 278 277 277 277 277 277 277 276 277 276 276 275 276 275 277 277 277 278 279 277 275 275 276 277 277 277 276 276 277
289 289 288 287 287 286 285 286 286 286 286 286 287 286 286 285 285 285 285 284 284 283 283 283 284 283 282 281 281 281 281 280 279 279 279 279 279 279 279 280 280 279 279 279 280 280 280 280 279 279 279 279 279 278 278 278 277 277 277 277 277 276 276 276 276 275 275 275 275 276 276 277 277 276 278 277 276 276 275 275 274 276 276 276 275
288 288 287 287 287 286 286 286 286 286 286 286 286 286 285 285 284 284 284 283 283 283 283 282 282 282 281 280 281 281 279 278 278 279 279 279 279 279 279 279 278 278 279 279 279 279 279 279 279 279 279 279 279 279 278 278 278 277 277 277 277 276 275 276 276 275 275 275 275 275 276 276 276 277 277 276 275 275 276 274 272 273 274 275 275
289 288 288 287 287 287 286 286 286 286 285 286 286 285 285 284 284 283 283 283 283 283 283 282 281 281 280 280 280 280 278 278 278 278 279 279 279 279 279 278 278 278 278 279 279 278 279 279 279 279 279 279 278 278 278 278 278 276 277 277 276 276 275 275 275 274 274 274 274 275 275 275 275 275 274 274 273 273 274 274 273 274 274 274 275
289 288 288 288 287 286 285 285 285 286 285 285 285 285 284 283 283 283 282 282 282 282 282 281 281 280 279 279 279 278 278 278 279 280 280 279 279 279 279 278 279 279 279 278 278 278 278 278 278 278 277 277 277 277 278 278 278 277 277 277 275 275 274 273 274 274 274 273 274 274 273 273 274 274 273 274 275 275 274 273 272 273 273 273 274
289 288 287 288 287 286 284 284 284 284 285 285 285 284 284 283 283 283 283 282 282 282 281 281 280 279 278 278 277 277 277 277 280 282 282 281 279 279 279 278 279 279 279 278 278 277 277 277 277 277 277 277 277 277 278 278 278 277 277 277 277 275 273 273 273 274 273 273 274 274 274 273 274 275 274 274 274 274 273 273 272 272 271 269 269
288 288 287 287 286 285 284 284 284 284 284 285 285 284 284 283 283 283 282 282 282 282 280 279 278 278 278 278 277 277 277 279 281 282 283 282 280 279 279 279 279 279 279 278 278 278 277 277 277 277 277 277 277 277 278 278 278 278 278 277 277 277 277 275 274 274 274 274 274 274 274 273 273 274 274 274 273 273 273 272 272 271 270 269 269
289 288 288 287 286 285 285 284 284 284 285 285 285 284 284 283 283 283 282 282 282 280 279 279 278 278 278 277 277 277 277 280 282 283 283 283 282 280 280 279 279 278 278 278 278 278 277 276 276 276 276 277 277 277 278 278 279 279 279 279 279 279 279 279 279 276 276 275 274 274 274 274 273 274 274 274 274 272 272 271 271 271 271 270 270
289 288 288 287 287 286 285 284 284 285 285 285 284 284 284 283 283 283 283 282 281 280 279 279 279 278 277 277 277 277 277 280 282 283 284 284 283 281 279 279 279 278 278 278 277 277 277 277 276 275 276 276 277 277 277 277 277 278 277 278 278 278 279 279 279 279 279 278 276 274 276 276 274 274 275 275 272 271 271 270 271 270 270 270 271
288 288 288 287 287 286 285 285 284 284 284 285 284 284 283 283 283 283 282 282 281 281 280 280 279 278 278 277 277 277 276 280 283 283 284 284 284 282 279 278 278 278 278 277 277 277 277 277 277 276 276 275 276 276 276 276 275 274 274 275 276 277 277 277 278 278 278 278 277 277 277 276 276 276 275 275 274 274 273 272 271 271 271 271 271
289 288 288 289 288 287 285 285 284 285 284 284 283 283 283 283 282 282 282 282 282 281 280 280 279 278 278 278 277 277 277 281 282 283 284 285 285 282 279 278 277 277 277 277 277 277 277 277 276 276 276 276 276 277 276 276 274 272 271 272 272 274 275 276 278 278 278 278 277 277 277 276 277 276 276 275 275 274 273 273 272 271 269 268 267
290 289 290 290 287 287 286 285 284 283 283 283 283 283 282 282 282 282 281 282 281 280 280 279 279 279 278 278 277 278 277 280 282 283 284 285 285 283 279 278 277 276 277 277 277 277 277 276 276 276 276 275 276 277 278 276 273 271 270 270 271 272 273 276 278 279 279 279 279 280 279 279 280 279 278 277 276 274 272 269 268 270 267 266 266
289 290 290 290 288 287 286 285 284 283 283 282 282 283 283 283 282 282 281 281 280 279 280 279 279 279 278 278 278 278 278 279 282 283 284 285 284 283 280 279 278 277 276 277 277 277 276 276 276 276 275 276 276 277 278 277 274 271 270 270 270 270 272 275 275 276 278 279 279 280 280 279 277 275 275 275 274 273 270 267 268 269 266 266 265
289 290 290 290 288 287 286 285 284 284 283 283 283 283 282 282 282 282 281 281 280 280 279 279 279 279 278 278 279 279 279 279 281 283 284 285 285 284 281 280 279 278 277 277 277 276 276 276 276 276 275 275 277 278 278 278 275 274 272 271 270 270 272 274 274 275 275 275 276 276 274 274 272 272 272 272 272 272 271 270 270 268 266 266 266
289 291 290 289 288 286 286 285 285 284 284 283 283 283 283 282 282 281 280 280 280 280 279 279 278 278 278 277 277 278 278 278 279 282 283 284 285 284 282 280 279 279 278 278 277 276 276 276 276 277 278 277 277 278 278 279 276 275 275 273 272 271 274 274 275 275 274 274 274 273 272 271 269 270 270 271 271 270 270 270 269 269 267 267 266
289 289 289 288 287 286 286 285 285 285 284 284 283 283 283 282 281 280 280 280 280 279 278 278 278 277 277 277 277 277 277 277 277 281 283 284 285 284 282 281 281 280 279 278 278 277 276 275 276 277 279 279 279 279 279 279 279 276 275 274 274 275 276 274 275 276 274 274 273 271 269 268 267 268 269 269 270 270 270 270 270 270 269 267 266
288 288 287 287 286 286 285 285 285 285 284 284 283 283 283 282 281 280 279 279 278 278 277 277 277 277 277 276 276 276 277 277 276 279 282 283 284 285 283 282 281 280 279 279 278 277 277 277 276 277 278 280 280 280 280 279 280 278 277 279 279 278 276 276 276 275 274 272 271 269 268 268 267 267 268 268 268 269 269 269 270 270 270 269 268
288 287 286 286 285 285 285 285 285 284 283 283 283 281 281 280 279 278 278 278 277 277 276 276 276 276 276 276 275 275 275 276 277 276 279 282 283 284 284 283 283 281 280 279 279 278 278 278 278 277 278 279 279 280 280 281 280 278 280 280 280 280 279 277 274 272 270 269 269 268 269 269 268 268 268 268 269 269 269 269 269 269 269 269 269
287 286 285 285 284 284 284 284 284 284 283 282 281 280 279 279 278 278 278 277 277 277 276 276 276 276 275 275 275 274 274 275 276 277 277 280 282 283 284 284 284 281 280 280 280 281 279 278 277 277 278 278 279 279 280 280 279 280 281 281 280 280 278 272 271 270 269 268 267 268 268 268 268 268 268 268 268 268 268 268 268 268 268 268 269
285 285 284 284 284 284 284 284 283 283 282 281 280 279 278 278 277 277 277 277 277 277 277 276 276 276 276 275 275 275 274 274 274 276 277 277 280 282 282 283 284 284 281 281 281 281 280 278 277 278 278 278 278 279 279 279 280 280 280 280 279 279 273 271 270 269 268 267 268 268 268 268 269 269 268 268 267 267 266 266 266 266 266 266 266
284 284 284 284 283 283 282 282 282 281 281 282 281 279 278 278 278 277 277 277 277 277 277 276 276 276 276 276 276 276 274 273 273 273 275 277 277 279 280 281 281 282 282 282 282 281 281 280 279 278 278 278 277 277 277 277 278 279 279 279 278 276 272 271 270 268 268 269 268 268 269 269 268 267 266 266 265 265 265 265 265 265 265 265 265
283 283 283 283 282 282 281 281 280 280 280 281 281 279 279 279 278 276 277 277 277 277 277 276 275 275 275 276 276 276 274 273 272 272 271 272 274 275 276 277 279 280 280 280 281 281 281 281 279 279 278 278 278 278 278 278 277 277 277 277 275 273 272 271 269 269 269 269 269 268 268 267 266 264 264 264 264 265 265 264 264 264 265 265 264
283 282 281 281 280 280 280 275 278 279 279 280 280 279 279 279 279 277 277 278 277 277 277 276 276 276 276 276 276 275 275 273 272 271 271 271 272 273 274 275 275 276 277 278 279 279 279 278 278 277 277 277 277 277 277 276 276 275 276 273 271 271 270 272 271 269 270 270 269 268 267 265 264 264 264 264 264 264 264 264 263 263 264 263 262
281 280 279 279 279 278 279 278 279 279 279 279 280 280 279 279 279 278 279 280 279 278 278 277 277 277 277 277 276 275 274 273 273 274 272 273 271 272 272 272 273 273 275 277 276 276 277 276 275 275 275 275 275 275 275 275 274 275 274 271 269 268 268 268 267 267 268 267 267 266 266 266 265 265 264 264 264 264 265 264 264 263 263 263 262
278 277 278 277 277 278 277 278 278 278 278 278 276 274 273 278 278 279 277 277 278 278 279 278 278 278 277 277 277 276 276 276 276 275 275 275 275 275 274 274 274 273 274 275 275 274 274 274 274 274 274 274 274 274 274 274 272 272 270 270 267 266 266 267 268 268 268 267 267 266 266 266 265 265 264 264 264 264 264 264 263 264 262 262 261
276 276 276 276 276 277 277 277 277 277 277 277 276 275 274 274 276 276 277 277 277 278 278 278 277 277 276 275 275 276 276 276 276 276 276 276 277 277 277 276 276 276 276 274 273 273 273 273 273 273 273 273 273 273 273 273 272 271 270 269 268 266 266 266 267 267 267 266 266 266 265 265 265 265 264 264 263 264 264 264 263 262 261 261 261
276 276 276 276 275 276 277 275 275 275 275 276 276 275 275 273 273 275 276 276 276 277 278 278 278 277 277 275 273 273 274 276 276 277 277 277 277 277 277 278 278 277 277 276 272 272 273 272 272 272 273 272 272 272 273 272 271 271 270 269 268 267 266 266 267 267 266 266 265 265 264 264 264 264 264 264 263 263 263 263 262 261 261 261 261
276 276 275 274 274 274 274 273 273 274 273 273 274 275 276 275 274 273 274 276 276 276 277 278 278 278 278 277 276 275 275 275 275 276 276 277 277 277 278 278 278 278 278 275 273 272 272 272 272 272 272 271 272 272 272 272 272 271 271 270 269 270 268 268 268 267 266 266 265 264 264 264 264 263 263 263 262 261 262 262 262 262 261 260 260
276 274 273 273 272 272 272 273 273 273 273 273 274 274 275 276 276 274 272 272 273 275 276 277 277 277 278 278 278 277 277 276 276 276 276 276 277 277 277 277 278 279 278 275 274 273 273 271 271 271 272 272 272 272 272 272 272 271 271 271 271 271 270 268 267 266 265 265 265 265 264 264 263 263 262 262 262 262 261 262 262 261 260 260 260
273 269 268 270 272 272 272 272 273 272 272 272 272 272 273 273 273 273 273 272 272 272 273 274 276 276 276 276 277 278 278 278 277 277 276 276 276 277 277 275 274 275 276 276 275 274 273 272 272 272 272 272 272 272 272 272 271 271 270 270 271 270 268 266 266 266 265 264 264 264 264 263 263 263 262 262 261 261 261 261 261 261 260 260 260
271 271 270 270 271 272 272 271 271 271 270 271 271 271 270 270 270 271 271 271 272 271 270 272 272 273 276 276 276 276 277 278 278 278 277 277 276 276 274 274 274 273 273 274 274 274 274 273 273 272 273 272 272 272 272 271 271 271 271 271 270 269 267 266 265 264 264 264 263 263 263 263 263 262 262 261 260 260 260 261 261 261 260 260 260
271 270 270 270 271 271 270 269 269 269 270 268 268 268 268 268 268 268 268 269 268 269 269 268 269 270 273 272 274 276 277 276 277 277 277 277 277 276 275 274 274 273 273 273 273 273 273 273 272 272 272 271 272 272 271 271 271 271 270 270 268 267 267 266 265 264 264 263 263 263 262 262 262 261 260 260 260 260 260 260 260 260 260 259 259
271 270 270 269 269 268 267 267 267 267 266 267 267 267 266 266 266 267 267 267 267 267 266 267 269 270 270 270 270 272 273 276 276 275 273 273 270 270 270 270 270 271 271 269 269 269 269 269 269 269 269 269 269 269 268 268 268 268 267 267 267 266 266 266 265 264 263 263 263 263 262 261 261 261 260 259 259 259 260 260 260 260 260 259 259
269 268 267 267 268 268 267 266 266 266 266 266 266 266 265 265 265 266 266 266 266 266 266 266 268 269 270 269 269 270 272 272 272 272 269 268 268 268 268 268 268 268 267 267 266 267 267 267 267 267 267 267 267 267 267 267 267 266 266 266 266 265 264 265 264 264 263 263 262 262 262 262 261 261 260 259 259 259 259 259 259 259 259 259 259
267 267 267 268 268 267 266 266 266 266 265 265 266 266 265 265 266 266 265 265 265 265 266 266 266 267 266 266 267 269 270 270 270 270 269 268 267 267 267 267 267 266 266 266 266 266 265 266 266 265 265 265 265 265 266 266 266 266 264 264 264 263 263 263 263 262 262 262 262 261 261 261 260 260 260 259 259 259 259 259 259 259 259 259 259
268 268 266 268 267 266 265 266 266 266 265 265 265 265 266 265 265 265 265 265 265 265 265 265 265 264 265 266 269 269 268 269 268 267 268 268 267 266 266 266 265 265 264 264 264 264 263 263 263 263 263 263 263 263 262 262 262 262 262 262 262 261 262 261 260 260 260 260 260 260 260 260 259 259 258 259 259 259 259 258 258 259 259 258 258
268 268 267 266 265 265 265 265 265 264 264 264 265 265 265 264 264 265 264 264 264 264 264 263 263 262 265 268 269 270 267 266 266 265 264 264 265 265 265 264 264 263 263 263 262 262 262 261 261 261 261 261 261 261 260 260 260 260 260 260 260 260 260 260 260 259 258 258 258 258 258 258 258 258 258 259 258 258 258 258 258 258 258 258 258
267 268 267 266 266 266 266 265 264 264 264 264 264 263 263 263 263 263 263 263 263 263 263 262 262 262 264 268 268 270 266 265 264 264 264 264 264 263 262 262 262 261 260 260 260 260 260 260 260 261 260 260 259 260 260 260 260 260 260 259 259 258 258 259 259 258 258 257 257 257 257 257 258 258 258 258 258 258 258 258 257 258 258 257 257
266 265 265 265 265 264 263 264 264 263 264 262 262 262 262 262 263 263 263 262 262 262 263 262 262 262 263 264 264 263 264 264 263 264 262 262 262 262 261 260 259 258 258 257 258 257 258 258 258 259 258 258 258 256 258 259 259 258 259 258 258 258 258 258 258 258 258 258 258 257 257 257 257 257 257 257 257 257 257 257 257 257 257 257 257
265 264 263 263 263 263 262 263 262 262 261 261 261 261 261 262 262 262 262 262 261 261 262 261 261 261 260 260 260 261 261 261 260 260 260 260 259 259 259 257 256 256 257 257 257 255 255 256 256 256 255 257 257 256 256 257 257 257 258 258 257 257 258 257 258 258 258 257 257 257 257 257 257 257 257 257 257 256 256 256 256 256 256 256 256
264 263 262 262 262 261 261 261 260 261 261 261 261 261 261 261 261 261 261 261 261 261 260 260 260 260 260 260 259 259 259 258 258 258 258 258 258 258 257 256 256 255 256 256 255 254 255 255 255 256 255 255 255 256 256 255 255 256 256 256 257 257 258 258 257 257 256 256 256 256 257 256 256 257 257 257 257 257 256 256 256 256 255 255 255
263 263 262 261 261 260 260 260 260 261 261 261 261 260 260 260 260 260 259 260 260 259 260 260 259 259 259 259 258 258 257 257 257 257 256 256 256 256 255 254 254 254 254 253 252 254 253 253 254 254 254 254 254 254 254 255 255 256 255 256 256 255 256 256 256 256 256 256 256 256 256 256 256 256 256 256 256 256 255 255 255 255 255 255 255
262 261 261 260 260 260 259 260 259 258 259 259 260 260 259 259 259 259 259 258 258 258 258 258 258 258 257 257 257 257 257 257 257 256 256 255 255 255 253 252 252 254 254 253 253 253 253 253 253 253 253 253 253 254 254 254 255 255 255 255 255 255 255 255 255 255 255 255 255 255 254 254 255 255 255 255 255 255 255 255 255 255 255 255 255
261 260 260 260 260 259 259 259 259 260 260 259 258 258 258 258 258 259 258 258 258 258 258 257 257 256 257 257 256 256 256 255 255 255 255 255 254 253 253 252 252 252 253 253 253 253 252 253 252 253 252 253 253 253 253 253 254 254 254 254 254 254 253 253 254 254 255 254 254 254 254 254 254 254 254 254 254 254 254 254 254 255 255 255 255
260 259 259 259 259 259 259 260 260 260 259 259 258 258 257 257 257 257 257 257 257 256 257 257 257 256 256 256 255 255 255 254 255 255 254 254 254 253 253 251 251 251 252 252 253 253 253 252 251 251 252 252 252 252 253 253 253 254 254 254 254 254 254 254 254 254 254 254 254 254 254 253 253 253 253 253 253 253 253 253 254 254 254 254 254
258 259 259 259 258 258 258 258 258 258 258 258 258 258 257 257 257 256 256 256 256 257 256 256 256 255 255 256 255 255 254 254 255 254 254 254 253 252 252 251 251 251 251 251 252 252 252 252 252 252 252 252 252 252 253 253 253 253 253 254 254 254 254 254 254 254 254 255 254 254 253 253 252 252 252 253 253 252 252 253 253 253 254 254 254
Wind_Speed
11 10 8 8 10 10 9 9 9 8 9 9 9 9 8 8 8 8 9 8 9 9 9 9 9 8 8 8 8 8 9 8 7 7 6 7 5 6 7 6 7 6 6 7 5 6 6 6 5 4 4 3 3 3 3 3 2 2 2 1 2 2 2 3 5 7 5 1 1 3 4 5 6 5 5 6 6 5 6 7 7 7 8 7 8
10 10 9 8 11 10 10 9 9 8 10 10 9 9 8 8 8 8 9 9 9 9 10 8 8 9 9 9 8 8 8 8 8 7 7 7 7 5 6 7 7 7 7 7 7 5 6 6 6 5 4 3 3 3 3 3 3 2 2 2 2 2 2 3 5 6 7 4 3 3 4 4 6 5 5 6 6 6 7 7 6 7 7 7 8
10 10 10 10 10 8 8 9 9 11 11 10 10 9 8 8 8 9 9 9 8 8 9 9 10 10 9 9 8 8 8 8 7 7 7 8 8 7 6 7 8 8 8 8 8 6 7 6 6 6 4 4 4 3 3 3 2 2 2 2 2 2 3 4 4 6 6 6 4 5 4 5 6 6 6 5 6 6 8 7 6 6 6 8 8
9 9 8 9 11 10 10 9 11 11 11 10 11 10 9 8 8 9 9 8 9 8 8 9 9 9 9 8 8 8 9 8 8 7 8 8 8 8 8 7 7 7 7 7 7 7 8 7 7 7 6 6 5 4 3 3 3 3 3 2 2 3 3 4 5 5 6 7 5 4 5 5 5 5 5 6 6 7 7 7 6 6 7 7 8
11 11 10 10 9 10 10 10 11 12 11 9 12 11 10 9 9 9 9 9 9 9 8 8 9 9 9 10 10 9 9 9 8 8 7 7 7 7 8 7 7 7 7 7 7 8 8 8 8 8 7 6 6 5 4 5 4 3 3 3 3 3 3 4 4 4 5 7 6 5 5 6 6 6 5 5 6 7 7 6 6 7 7 7 7
11 12 12 13 11 12 11 11 12 13 12 11 12 11 10 10 10 9 10 10 10 9 10 9 9 10 9 9 9 9 9 8 8 8 8 7 7 7 7 7 7 6 6 6 6 7 7 7 8 8 8 7 6 6 6 7 5 4 4 4 4 4 4 4 4 5 5 6 6 7 5 6 6 6 4 4 7 8 7 5 6 6 6 7 7
12 12 12 13 12 14 13 13 12 13 12 11 11 11 10 11 11 10 10 10 10 10 10 10 8 9 8 7 8 9 9 8 8 8 8 8 7 7 6 6 5 4 5 5 6 6 6 6 7 8 8 7 7 8 7 7 6 6 6 6 5 5 4 4 4 5 5 5 6 6 6 6 6 7 5 6 8 7 7 7 7 5 6 7 8
13 13 12 12 12 13 13 13 13 12 11 11 11 11 11 11 11 9 9 10 10 10 10 9 8 7 7 7 8 8 8 7 7 8 8 8 7 7 7 6 6 5 5 5 5 5 5 6 6 7 7 7 8 8 8 7 6 6 6 6 6 6 5 4 4 4 4 4 5 6 6 6 6 6 6 7 7 6 4 6 9 8 8 7 7
14 14 13 14 13 12 11 10 10 11 10 10 12 12 12 11 11 10 10 10 8 9 8 9 10 9 7 7 8 7 7 7 7 8 9 9 8 8 7 7 7 6 6 5 5 5 5 5 6 6 7 6 7 6 6 6 6 6 7 7 7 6 5 4 4 4 4 4 5 5 6 6 5 6 6 6 7 7 7 7 8 8 8 9 8
14 15 15 14 12 12 10 9 11 12 12 12 12 12 11 10 10 11 11 10 10 9 10 9 10 10 10 8 8 7 6 5 8 12 10 8 9 7 6 7 7 7 7 6 6 6 6 5 4 5 6 7 7 8 8 9 8 6 6 7 7 6 6 5 4 4 4 5 6 6 7 7 5 5 7 7 7 8 8 8 8 9 9 9 8
14 13 14 13 12 11 10 10 11 13 12 11 12 11 11 10 10 10 10 10 11 11 10 11 10 8 8 9 9 7 4 6 12 16 16 13 9 8 8 7 7 7 7 7 6 6 5 5 4 5 7 7 8 10 10 12 12 12 10 8 8 8 7 7 6 6 5 6 6 6 7 9 9 7 7 7 6 6 7 8 9 9 9 10 10
15 14 12 12 13 12 10 11 12 12 11 11 11 8 9 9 9 8 10 10 10 9 10 9 8 8 8 9 8 6 6 10 17 17 16 16 11 7 7 6 7 7 7 7 5 5 6 5 5 4 6 7 7 8 11 13 14 14 14 12 12 12 11 8 7 6 7 7 8 8 7 8 9 9 7 6 7 7 8 9 9 9 10 10 10
14 14 13 13 14 13 12 11 10 8 8 9 8 8 8 7 7 8 9 8 8 9 8 9 9 9 9 9 9 7 6 13 17 17 18 18 16 11 5 7 6 7 7 7 6 6 6 5 5 5 5 9 8 7 8 10 14 16 16 16 15 16 16 17 15 9 6 7 9 9 8 8 9 8 6 7 7 8 8 8 8 9 9 10 10
13 14 13 13 13 14 12 13 14 7 9 8 8 9 9 10 9 8 6 7 7 7 9 10 9 9 10 8 7 6 7 12 19 19 18 18 17 14 6 7 7 7 8 7 6 7 7 7 6 6 6 7 8 8 8 8 8 10 12 12 12 14 17 19 18 19 16 11 10 9 9 8 9 8 9 8 8 8 7 9 9 10 10 11 13
14 14 14 14 13 13 13 12 13 11 10 8 10 10 10 9 9 7 8 9 10 10 10 11 10 10 12 11 9 7 6 15 18 19 18 18 18 14 6 6 5 6 7 7 7 7 8 7 7 7 7 8 8 10 9 9 8 7 7 8 9 9 9 11 12 12 12 11 11 10 9 8 8 8 7 7 7 7 7 9 10 11 11 12 12
14 14 14 15 15 12 13 14 12 7 8 10 12 11 11 13 13 10 8 7 5 5 7 7 9 10 9 9 10 10 9 16 18 18 18 18 19 10 7 7 6 6 6 7 7 7 8 8 7 7 8 9 11 15 12 8 7 6 8 7 7 8 9 10 12 12 10 8 8 9 8 9 9 8 8 7 5 5 7 8 8 9 10 10 9
16 16 15 13 13 13 15 12 13 12 12 13 13 14 13 12 11 9 10 9 8 10 10 10 9 10 10 10 10 10 6 15 18 19 19 19 15 8 7 6 6 6 7 7 7 8 8 9 8 7 8 9 11 15 17 14 6 7 7 7 7 8 8 8 13 17 18 17 17 17 16 16 15 12 7 8 8 8 7 7 8 7 8 9 9
16 15 14 15 13 16 13 13 14 14 14 15 15 12 11 10 10 10 8 10 12 12 10 8 8 9 10 11 11 10 10 12 18 18 19 21 16 9 7 7 6 6 6 7 7 7 9 12 10 9 9 9 12 16 17 15 10 7 8 8 9 9 9 9 7 9 16 18 18 18 16 12 4 3 5 7 8 6 5 8 7 6 8 7 9
15 15 14 13 14 12 12 13 14 15 16 15 14 13 13 13 11 10 10 9 9 7 8 7 7 6 8 9 8 8 6 8 17 18 19 20 16 8 7 7 7 7 7 6 7 7 7 10 16 13 11 10 14 16 18 16 13 10 9 9 10 11 9 8 8 8 8 8 9 5 2 3 1 2 3 4 6 6 7 8 6 6 7 7 7
13 11 9 10 12 10 12 14 14 14 14 13 12 12 10 8 8 8 8 7 7 6 7 5 9 7 7 7 7 6 5 5 10 18 18 19 20 10 7 8 9 8 7 7 7 7 8 7 11 19 19 17 16 17 17 19 14 12 10 11 11 12 7 8 9 8 9 9 8 6 5 2 2 2 3 3 4 5 6 7 7 6 7 8 8
9 8 8 11 11 12 10 12 13 12 12 12 11 10 8 8 8 10 9 7 6 7 9 8 6 5 5 5 5 6 7 6 9 17 18 19 20 17 7 9 8 7 7 7 7 7 7 8 7 14 21 21 19 19 19 19 19 14 12 12 12 7 6 7 9 13 10 9 6 4 3 3 3 2 3 4 4 5 5 6 7 7 7 7 8
9 9 10 12 11 11 11 10 10 10 9 9 9 7 7 8 9 9 7 8 10 9 8 5 5 5 5 5 5 5 5 8 6 14 18 19 19 21 11 9 8 7 8 7 7 8 8 7 8 12 19 20 19 19 20 19 21 16 15 18 18 18 12 9 8 8 9 6 4 4 4 3 3 3 3 4 4 5 6 6 6 7 7 7 8
9 7 10 11 10 11 10 11 11 9 9 10 11 10 8 8 8 8 8 8 9 9 7 5 5 5 5 5 4 5 5 7 13 10 15 18 19 20 21 11 13 9 9 10 9 8 7 7 8 11 16 19 20 19 19 20 18 17 23 22 21 20 17 8 4 5 3 4 4 5 5 4 4 4 4 4 3 4 4 5 5 6 7 7 9
9 10 10 10 10 10 10 10 9 8 10 10 10 10 9 9 7 6 8 7 6 6 6 5 6 6 6 5 5 5 5 5 10 13 11 17 18 20 21 20 15 10 9 10 9 9 7 7 7 12 15 16 18 18 18 19 17 22 22 23 22 20 10 2 4 4 5 4 5 5 5 4 3 4 5 4 3 3 3 4 5 6 7 7 8
10 10 9 9 8 8 8 7 7 8 9 10 9 8 10 9 7 6 6 6 6 7 6 6 7 7 6 6 5 5 5 5 5 9 15 14 18 19 19 19 19 18 12 9 9 8 5 6 9 12 13 16 18 19 18 20 23 23 23 22 20 9 3 4 4 5 5 6 6 6 5 5 5 4 3 2 2 3 4 5 5 6 6 7 8
11 11 10 9 10 10 10 8 9 9 9 6 7 5 8 8 7 7 7 6 6 6 6 6 6 6 6 6 5 5 5 4 5 4 7 10 11 16 17 17 17 18 18 15 16 14 14 14 14 14 15 15 12 11 11 12 16 19 21 20 12 7 4 4 5 5 6 6 5 7 5 3 3 2 2 2 3 4 4 4 4 5 5 5 6
11 9 9 8 9 10 11 7 7 6 6 5 5 6 6 6 7 7 7 7 7 6 6 6 6 6 6 6 4 4 4 4 4 4 4 4 5 6 8 10 13 14 12 10 11 12 13 13 10 12 12 15 16 15 14 13 12 10 9 8 4 2 5 5 6 6 6 5 4 4 3 2 1 2 3 3 4 4 4 4 4 5 4 5 5
11 10 11 9 6 8 9 11 10 6 6 6 6 6 6 6 7 8 9 9 8 7 7 7 7 7 6 5 4 4 5 4 5 5 6 6 6 4 5 4 4 5 6 7 6 6 2 4 8 8 8 9 9 9 9 8 9 8 8 2 3 2 4 7 5 3 3 3 3 2 2 3 3 3 3 4 5 5 4 4 5 5 4 4 5
10 9 9 8 8 7 6 7 6 6 6 5 3 3 7 7 6 4 1 3 6 7 7 6 5 4 4 5 5 4 4 5 6 7 4 7 6 5 5 5 5 5 7 9 5 4 4 4 5 6 6 7 8 8 7 7 7 7 7 3 2 3 5 5 5 5 5 4 4 4 4 3 3 3 4 4 5 5 4 5 5 5 4 5 7
9 9 8 8 8 7 6 6 6 6 6 6 6 4 7 6 3 2 4 2 1 3 1 2 2 3 4 3 3 4 3 1 6 8 11 12 13 14 11 10 9 7 7 10 7 5 6 7 7 7 8 8 8 8 9 8 5 5 2 4 3 3 4 4 4 5 3 4 4 4 4 4 4 4 4 5 5 4 5 6 5 4 4 5 6
8 8 7 6 7 7 6 6 5 6 5 6 6 6 5 4 5 6 5 5 4 5 4 3 5 5 3 3 2 2 1 3 4 5 8 10 12 12 13 12 12 12 10 6 5 6 7 7 7 7 7 8 8 9 9 7 6 5 5 4 3 4 5 4 4 3 3 4 4 4 4 5 5 4 5 5 5 5 4 5 5 5 5 6 6
7 7 6 6 8 6 5 5 5 5 5 5 5 6 6 5 3 4 5 5 5 6 6 6 6 8 8 5 4 1 3 5 6 6 7 8 9 10 10 11 11 11 10 9 5 5 5 6 6 6 6 7 7 7 7 7 5 6 5 5 7 5 6 6 6 5 4 4 5 4 5 5 5 5 5 5 4 5 5 5 5 5 5 5 6
9 8 6 7 6 7 6 6 6 5 6 6 5 5 6 6 6 5 4 4 5 5 5 6 7 7 7 7 8 6 4 5 6 6 8 8 9 9 9 10 10 10 10 8 7 6 6 6 6 5 5 6 6 6 6 7 6 6 7 8 8 7 7 7 4 4 4 5 4 4 5 5 4 3 4 4 4 5 5 6 5 5 5 5 6
10 8 8 8 7 6 5 5 6 5 4 4 5 6 5 4 5 6 6 5 4 3 3 5 5 5 6 6 7 7 8 7 6 6 6 6 7 9 9 6 8 10 10 7 7 6 6 6 6 5 5 6 6 6 7 7 7 8 6 8 8 8 5 4 4 5 4 5 7 7 5 5 3 4 5 5 5 5 5 6 5 5 6 6 6
7 7 11 10 5 6 5 5 5 5 5 5 5 4 4 3 3 5 5 6 6 5 5 4 5 6 4 4 5 7 8 9 9 8 7 6 6 7 7 5 5 5 7 7 7 7 7 6 7 7 7 7 7 7 7 7 7 6 5 5 7 6 3 3 4 4 4 4 5 6 4 4 4 4 5 5 5 6 6 6 6 6 6 6 6
8 5 6 6 4 4 4 4 4 4 5 4 4 3 3 3 3 3 2 2 4 5 4 4 3 3 4 5 6 7 7 8 9 9 8 7 6 7 5 5 5 6 5 6 3 2 4 5 5 6 6 7 7 7 7 7 7 7 7 7 7 4 3 4 3 5 5 5 5 5 4 4 4 4 4 5 6 6 6 6 6 6 6 6 6
6 5 5 4 4 4 4 4 3 3 4 3 4 4 3 3 2 3 3 3 3 3 3 3 3 3 4 2 3 5 6 8 8 9 7 7 6 4 3 4 5 5 5 6 6 6 5 2 1 1 2 2 3 3 3 4 4 4 4 4 2 3 4 4 4 4 5 5 5 4 5 4 3 4 5 5 5 5 6 6 6 6 6 7 7
5 5 4 5 5 5 5 5 5 6 4 4 3 4 4 4 4 4 3 4 4 4 4 3 4 5 7 5 2 2 4 9 13 11 8 7 4 3 3 2 1 3 2 2 2 1 1 1 1 1 2 1 3 2 1 2 2 2 2 3 5 5 4 5 6 5 4 3 4 4 3 3 4 4 4 5 6 6 6 6 6 5 7 8 7
5 7 8 8 5 5 5 5 5 5 4 4 4 4 3 4 4 4 4 4 4 3 3 3 4 4 4 5 3 3 5 5 6 5 4 3 3 3 3 2 2 2 2 2 2 2 2 2 1 1 1 1 1 1 1 2 1 1 2 3 4 2 4 4 5 5 4 3 3 3 3 3 4 4 4 4 6 6 6 6 6 7 8 7 6
6 5 6 8 5 5 3 3 4 5 3 5 5 4 5 4 4 4 4 4 4 4 4 4 4 3 3 4 6 6 8 7 7 5 4 4 3 3 2 2 2 2 2 2 2 2 2 2 2 1 1 1 1 1 1 2 3 3 1 1 2 3 3 2 2 3 3 3 3 3 4 4 4 3 4 5 5 5 6 7 7 7 7 8 7
5 5 6 5 5 6 5 4 3 4 4 3 4 3 4 3 3 3 4 4 4 4 3 3 3 2 4 5 8 7 4 5 4 2 3 3 3 3 3 2 2 2 1 2 2 1 1 1 1 0 0 0 0 1 1 1 1 1 2 2 2 3 3 2 2 3 3 3 3 4 4 4 3 4 5 5 6 6 7 7 7 7 7 7 7
5 6 5 5 5 4 5 3 3 4 4 3 4 3 3 3 4 3 3 4 3 3 4 3 3 3 5 10 9 10 5 2 2 2 1 1 2 1 1 1 1 1 1 1 1 1 1 1 1 1 1 1 1 1 1 1 2 2 2 2 3 3 3 4 3 3 2 3 3 4 4 3 3 4 6 6 5 6 6 6 6 6 6 6 6
5 5 5 4 5 4 4 5 5 4 4 4 3 4 3 4 3 3 3 3 4 4 5 5 4 3 3 8 6 10 4 3 3 3 2 2 2 2 2 1 1 1 0 0 0 1 1 2 2 2 2 2 1 1 2 2 2 2 2 3 3 3 4 4 3 3 3 3 4 4 4 4 5 5 5 5 5 5 6 5 5 5 6 6 6
5 4 3 4 3 4 3 4 4 3 3 4 5 3 3 3 3 4 4 4 4 4 4 4 5 4 4 4 3 2 2 3 3 2 2 1 1 1 1 1 1 1 2 2 2 1 1 2 2 1 1 1 1 1 2 2 2 2 2 3 3 4 4 4 4 3 3 3 3 4 5 5 5 5 6 6 5 5 5 5 5 5 5 5 6
4 5 5 4 3 4 4 3 4 4 4 4 3 3 2 3 4 4 4 4 3 3 3 3 4 4 3 2 2 3 2 2 1 1 1 1 1 1 1 1 2 2 2 2 2 2 1 2 2 2 2 2 2 2 2 2 2 2 3 3 3 4 5 4 3 2 2 3 4 5 5 5 5 5 5 5 5 5 5 5 5 6 6 6 6
4 4 3 4 4 3 3 4 3 4 4 4 5 4 4 3 3 3 3 3 4 4 3 3 3 3 3 3 2 2 2 2 1 1 1 1 2 2 2 2 1 1 1 1 1 2 2 2 2 2 2 2 2 2 2 2 3 3 3 3 4 4 3 2 2 2 2 4 5 5 4 5 5 5 6 5 4 4 5 5 5 5 6 6 6
4 4 4 3 4 3 3 3 4 4 4 4 4 4 4 4 3 3 2 3 4 3 3 3 4 3 3 3 3 2 2 2 2 2 2 2 1 1 1 1 1 1 1 1 1 2 2 2 2 2 2 2 2 2 2 2 2 2 3 3 4 4 4 3 2 3 4 5 5 6 6 5 5 5 5 5 5 5 5 6 6 6 6 6 6
3 3 3 3 4 4 4 4 5 5 3 3 4 3 3 3 3 3 3 3 3 3 2 2 2 2 2 2 2 2 2 2 2 2 2 2 2 2 2 1 2 2 1 1 2 2 2 2 2 2 3 3 3 3 3 3 3 3 3 3 3 4 3 4 3 3 3 5 5 5 6 6 5 5 5 5 5 5 5 6 5 6 6 6 6
4 4 4 4 4 4 4 5 3 5 5 4 5 5 3 4 3 3 2 2 2 2 3 3 2 2 2 2 2 2 2 2 2 2 2 2 2 2 2 2 2 2 2 2 2 2 2 2 3 3 3 3 3 3 3 3 4 3 3 3 4 6 7 8 6 5 6 5 6 5 5 5 6 5 5 5 5 5 6 6 6 6 6 6 6
3 4 3 4 3 3 2 2 3 3 3 3 4 4 4 3 3 2 2 2 2 2 2 2 2 3 3 2 2 2 2 3 3 3 2 2 2 2 2 2 2 2 2 2 2 2 2 2 2 3 3 3 3 3 3 4 4 4 3 4 7 9 9 10 11 10 7 5 5 5 5 5 5 5 5 5 5 6 7 6 6 6 6 6 6
2 3 3 3 3 3 3 3 3 3 3 3 3 3 4 3 3 2 2 3 3 3 3 2 2 2 2 2 2 2 2 2 2 2 2 2 2 2 2 2 2 2 2 2 2 2 3 2 2 3 3 3 3 4 4 4 4 4 6 8 10 10 11 10 8 9 12 9 6 5 5 5 5 5 5 5 5 6 7 7 6 6 5 5 5
Wind_Direction
179 180 170 173 173 179 177 176 179 182 178 179 176 173 168 165 160 152 145 154 153 158 159 157 153 149 145 146 152 151 144 141 141 140 140 140 140 135 141 148 148 150 152 153 160 159 157 147 139 133 147 163 153 155 155 147 155 154 158 193 201 199 221 252 262 275 281 149 252 286 307 304 302 300 302 307 309 306 302 303 304 305 306 309 313
177 173 173 172 179 178 180 179 178 176 176 176 180 175 169 167 156 147 157 155 161 161 159 153 151 150 149 154 158 150 143 142 145 148 147 147 142 143 154 160 158 155 159 163 167 165 156 148 143 143 153 162 163 178 164 162 166 165 179 198 217 203 214 238 264 272 279 273 273 297 293 291 291 299 305 305 302 305 305 302 299 298 303 309 312
176 175 174 174 180 179 171 175 174 177 178 179 182 174 169 164 158 161 163 157 162 162 158 155 154 155 153 158 156 150 147 146 151 151 153 156 155 160 167 169 168 166 170 171 169 162 159 157 156 152 155 170 180 178 164 167 167 187 188 194 211 213 215 237 256 270 279 283 294 287 295 302 294 301 301 292 294 300 302 298 298 295 296 306 306
175 174 170 171 174 174 177 174 176 179 180 182 180 173 169 167 164 169 164 160 162 161 156 157 155 158 158 160 158 152 152 151 152 158 160 161 163 168 172 176 177 177 174 170 169 169 168 165 166 163 165 175 175 173 176 174 186 191 185 203 208 226 227 228 243 266 280 285 283 292 298 299 297 297 293 286 291 301 297 292 285 287 296 298 300
174 176 174 176 177 179 181 177 178 182 183 181 179 173 173 167 169 172 165 165 165 156 155 159 160 163 167 168 164 162 160 155 156 160 163 168 171 171 176 180 181 178 179 178 176 175 176 177 166 163 170 176 175 180 178 182 190 191 194 195 211 221 218 231 236 253 268 276 289 291 289 284 290 287 282 293 302 301 294 286 292 295 293 291 292
177 175 179 181 183 183 178 179 183 183 181 181 180 175 173 170 170 173 171 166 163 164 162 167 172 174 172 169 165 159 156 157 160 164 167 172 178 180 180 182 180 179 179 181 182 185 182 178 166 169 176 181 180 179 179 184 185 192 195 203 209 214 222 230 236 243 260 273 284 295 292 294 295 289 283 297 309 306 301 295 294 291 293 296 297
176 180 182 185 181 185 183 184 183 181 181 181 177 173 173 173 174 174 173 170 167 167 172 172 174 172 165 159 164 161 158 162 163 166 168 173 180 181 181 181 176 173 183 185 191 190 186 178 174 177 182 185 182 183 182 182 187 193 196 203 206 206 219 221 226 245 259 275 282 284 291 289 287 290 300 309 293 287 296 310 308 303 298 303 306
177 182 181 186 186 184 184 181 181 180 180 178 175 172 171 173 175 168 166 170 173 174 173 170 165 164 159 160 166 161 158 157 163 166 168 174 180 188 182 177 178 181 184 190 192 193 191 187 185 185 187 189 190 188 184 185 181 192 198 194 201 201 212 218 225 242 258 271 277 285 290 290 288 288 299 297 297 293 307 320 308 312 310 309 302
178 182 187 192 189 180 173 172 174 177 174 174 176 176 176 174 170 166 170 174 173 174 166 163 164 168 160 163 164 165 164 172 174 173 170 176 183 185 181 180 180 179 183 189 194 196 198 197 196 193 193 194 197 194 190 184 181 190 196 190 198 196 206 213 222 240 262 271 279 286 284 283 286 301 304 307 308 310 315 308 299 303 310 307 304
182 183 187 192 183 175 170 164 176 178 179 181 182 178 174 168 167 169 174 174 171 168 164 167 171 172 167 167 169 171 179 175 173 171 170 173 179 177 174 181 184 187 187 189 194 201 205 201 199 193 189 189 193 197 196 197 208 211 198 189 187 191 193 199 221 235 250 265 273 283 283 281 288 293 295 294 303 305 305 310 307 313 312 303 299
186 184 186 183 174 172 172 173 177 181 182 179 180 175 172 167 169 171 170 170 171 168 166 172 176 168 166 167 174 180 171 165 175 185 185 176 170 173 175 179 183 190 193 190 192 194 201 202 198 189 197 203 206 210 211 213 216 220 221 212 199 188 187 197 208 213 228 253 264 263 269 282 287 293 288 295 296 304 310 310 309 312 316 321 316
185 187 183 174 170 171 172 173 181 182 174 180 175 167 162 164 169 167 167 173 178 168 175 174 163 165 169 176 179 175 175 186 188 189 186 184 179 171 173 176 184 193 193 190 190 189 193 194 197 190 204 202 202 207 217 220 221 220 220 218 216 215 209 201 204 218 233 244 255 259 263 273 286 292 291 295 299 305 303 303 301 305 308 307 305
185 184 182 175 176 175 173 173 176 175 176 173 168 159 161 165 165 164 177 177 168 176 176 165 172 174 173 175 185 180 182 185 189 190 192 191 186 179 180 183 184 193 190 188 188 190 188 190 194 196 199 199 207 212 212 219 224 226 226 228 229 228 229 230 228 217 220 244 254 261 253 268 278 284 291 294 295 293 298 296 298 299 297 294 295
188 187 182 180 177 178 172 179 186 178 174 169 162 165 171 182 180 176 166 174 181 176 186 188 181 179 183 179 169 165 181 184 191 193 193 191 188 184 187 184 191 196 192 189 189 191 194 193 192 198 194 192 205 210 215 217 214 218 224 227 230 234 237 239 240 239 242 251 255 257 260 260 271 283 292 288 287 286 293 294 299 297 293 289 296
190 186 183 180 178 181 178 182 189 184 180 164 167 172 174 175 174 168 172 177 178 184 186 188 190 189 193 195 189 192 184 189 194 193 193 191 190 185 185 183 191 197 195 194 196 196 200 199 202 202 199 201 206 206 210 215 212 210 213 222 228 229 231 232 233 234 235 238 247 252 259 263 268 273 275 274 267 275 289 295 297 293 292 292 288
189 188 189 190 188 181 179 185 181 159 159 167 176 178 180 185 184 180 171 177 179 167 186 190 190 189 189 187 195 204 175 192 195 194 193 192 188 185 181 187 192 197 197 199 197 202 203 202 200 205 206 210 209 207 211 213 208 200 216 224 232 238 238 234 234 234 234 235 244 254 252 258 252 249 245 243 275 304 303 298 292 286 289 292 289
194 193 193 182 178 174 181 175 176 172 175 177 183 187 186 186 187 178 181 177 174 187 192 191 189 188 189 192 198 207 171 196 197 196 194 191 187 189 172 185 196 199 206 197 199 205 207 202 202 205 209 216 209 206 212 213 211 199 213 222 230 236 241 236 235 237 240 245 249 250 252 241 250 274 292 303 307 310 308 298 283 289 291 292 293
193 189 187 185 177 181 178 174 171 172 175 184 187 187 186 187 181 177 172 171 185 193 190 187 191 193 192 195 198 201 202 194 195 196 194 193 190 186 170 189 197 199 204 200 204 211 210 201 203 210 213 218 207 210 215 215 218 203 213 224 229 232 237 234 237 240 242 246 249 251 256 267 309 326 304 306 312 315 294 280 286 292 281 281 289
184 184 185 177 178 174 173 174 175 177 181 186 183 181 184 185 182 176 186 186 189 178 183 186 190 184 195 198 190 196 196 181 196 198 197 197 195 190 174 191 199 205 200 204 207 213 214 205 208 213 217 218 211 213 217 215 222 216 210 217 228 232 231 225 230 235 232 231 241 233 221 169 144 256 261 291 295 285 270 269 273 268 275 283 289
184 177 159 143 168 170 178 179 181 181 182 179 180 184 176 168 169 168 179 180 169 151 163 170 193 181 173 184 192 194 181 175 194 201 201 202 200 196 180 188 206 202 200 205 206 214 211 212 211 217 222 223 220 220 221 219 220 223 218 223 226 234 222 217 221 224 227 231 227 205 206 149 171 229 251 256 271 258 255 260 262 262 269 279 282
166 146 144 161 172 177 180 181 178 180 178 177 175 172 169 163 159 170 177 173 163 173 186 194 193 169 179 190 186 196 198 181 193 202 207 206 207 205 192 203 205 197 203 205 212 213 212 210 215 213 222 227 227 228 228 228 226 225 224 227 229 228 207 221 225 227 229 225 203 182 187 189 192 208 236 246 252 256 252 255 251 255 260 267 278
152 159 167 172 176 176 175 174 175 173 166 160 161 160 166 168 170 171 170 170 176 183 182 177 177 182 179 189 194 191 188 188 188 207 210 211 211 213 214 207 197 197 210 216 214 222 218 213 214 209 215 227 230 231 231 233 233 234 235 235 241 242 241 239 234 218 218 205 185 193 204 218 218 211 229 238 240 239 240 244 246 250 256 258 262
148 157 172 173 174 173 172 171 170 165 165 166 163 159 152 158 160 162 164 169 175 180 177 169 169 187 187 194 194 194 188 201 205 207 214 215 216 218 221 217 197 206 214 227 217 224 221 214 214 190 208 222 232 236 241 241 241 239 241 244 245 246 246 237 191 192 164 180 187 203 209 215 230 239 241 247 247 235 242 251 253 257 260 259 264
159 167 173 171 167 171 169 168 164 161 161 158 160 158 161 161 155 160 169 164 161 169 176 171 183 188 194 198 190 191 191 195 211 210 211 218 222 223 226 227 209 208 215 234 239 239 228 207 198 192 209 220 231 237 244 245 243 243 244 244 246 249 245 117 166 177 186 172 194 207 214 214 229 250 249 247 247 247 255 263 265 264 264 267 267
162 168 167 165 159 158 155 153 152 156 158 160 159 149 151 156 152 161 153 167 169 176 178 172 187 192 195 201 193 185 188 195 201 212 214 220 227 230 232 233 235 227 229 235 243 243 237 171 186 206 209 224 230 239 244 250 251 250 248 247 248 249 179 164 178 176 183 197 199 215 217 215 226 246 256 255 258 264 255 253 250 251 254 259 261
163 164 162 159 158 151 154 153 156 156 157 163 162 136 146 154 157 161 168 176 175 177 177 179 191 193 202 203 200 185 168 184 202 202 214 223 232 238 240 242 243 243 247 251 246 245 244 241 231 213 215 222 229 236 246 248 251 251 250 249 247 239 175 187 179 182 200 201 201 218 221 216 219 213 217 231 240 249 246 254 260 261 245 251 261
157 154 154 145 142 156 148 149 142 141 142 136 140 147 153 159 157 157 170 170 174 182 183 177 188 196 203 205 194 179 175 189 196 189 199 215 225 228 237 246 249 254 257 261 270 264 263 252 232 220 213 217 223 230 235 243 248 249 246 244 242 170 205 198 195 189 201 196 209 211 207 194 162 193 237 225 236 237 230 243 251 260 256 260 268
156 156 155 152 138 156 145 149 148 145 155 150 151 155 164 170 170 176 178 178 174 183 184 186 192 193 196 193 188 195 201 196 195 190 193 202 209 212 220 229 232 234 245 252 256 264 266 225 229 224 226 231 237 240 239 235 232 231 235 162 196 202 207 215 198 201 203 206 203 192 185 181 217 220 225 230 240 241 225 230 237 252 252 262 263
147 144 145 147 154 154 136 145 153 140 141 143 139 144 166 177 178 179 164 166 176 175 181 190 190 185 180 182 181 198 206 213 216 189 191 186 191 200 206 214 222 229 237 246 264 283 269 245 214 216 218 226 232 236 234 233 229 227 220 181 159 167 187 186 194 200 198 190 207 205 221 207 225 220 224 239 239 239 224 230 237 240 256 252 256
142 142 137 133 137 138 135 147 142 140 148 154 138 80 32 46 36 164 181 172 94 28 117 184 170 171 184 202 183 197 211 180 115 174 207 215 219 219 219 216 213 218 234 245 248 254 250 246 243 230 234 238 241 240 241 234 214 221 183 193 183 194 204 213 207 212 190 197 204 205 217 216 229 220 225 235 246 236 231 229 243 234 241 248 257
107 116 143 148 153 141 139 145 151 150 151 144 145 137 126 91 73 70 90 138 162 176 164 148 130 166 172 175 170 191 162 112 152 183 199 213 219 223 226 229 230 230 232 230 233 229 236 239 241 240 239 242 245 249 250 239 226 225 226 211 203 205 222 220 222 211 211 203 213 217 218 219 229 226 232 234 238 242 236 226 230 239 241 248 256
144 152 144 137 145 148 138 138 137 140 143 148 152 152 147 140 121 111 120 139 160 181 190 183 169 163 179 175 148 152 201 216 219 211 210 215 221 224 228 230 230 225 223 214 221 233 230 234 240 240 240 243 247 249 248 240 228 228 223 226 233 208 208 221 211 200 212 214 219 220 214 224 228 231 233 240 235 243 239 240 228 233 240 244 250
135 128 131 139 142 144 143 143 150 148 149 151 161 162 160 160 152 147 127 141 157 167 175 182 189 188 180 176 171 175 169 178 197 215 224 226 226 225 226 228 226 224 217 217 219 228 233 237 241 246 243 248 250 249 247 245 234 229 234 237 241 238 212 216 188 196 213 218 219 224 224 224 229 234 236 235 234 242 241 240 240 240 245 255 255
144 147 153 151 142 146 146 152 150 153 153 151 155 163 168 161 154 139 143 144 137 147 167 180 183 182 194 195 193 193 187 180 181 191 203 218 222 222 220 224 228 225 219 220 224 224 219 222 236 244 247 246 244 242 243 239 239 240 231 240 246 250 236 141 183 216 214 221 233 239 217 224 217 231 241 233 231 235 242 242 239 242 243 244 255
121 122 137 146 133 141 143 147 147 138 145 151 155 159 152 144 133 154 162 158 160 158 157 155 170 171 170 179 196 204 206 199 196 190 193 196 204 202 203 206 213 222 222 224 215 217 220 214 216 226 234 240 238 234 241 244 242 230 222 232 247 241 177 180 202 202 206 210 219 229 214 214 220 224 238 241 237 231 234 236 240 237 244 250 255
120 125 137 146 130 128 135 136 136 141 148 151 142 130 126 139 147 145 130 125 133 133 130 132 111 67 133 164 185 190 195 206 203 200 194 189 185 184 187 206 201 213 217 229 225 214 207 221 225 227 229 234 237 240 244 246 245 246 247 242 241 221 189 201 207 206 209 209 214 214 218 221 222 228 236 240 234 239 249 246 246 244 239 246 253
130 132 141 145 136 123 114 111 116 125 122 116 124 127 131 127 119 119 123 132 124 120 124 124 126 146 111 64 101 156 176 194 206 199 192 182 175 181 198 203 213 213 218 219 228 241 249 243 103 258 260 248 251 252 248 246 248 245 241 239 224 215 218 204 207 199 202 209 213 209 217 230 216 220 223 240 243 237 239 242 243 246 248 249 254
101 130 131 124 118 113 118 126 127 121 123 130 124 123 121 127 131 132 133 133 133 135 136 146 164 164 168 160 112 118 112 115 108 96 85 78 68 84 95 86 102 199 187 91 92 88 98 104 141 191 237 227 234 238 220 234 223 226 226 238 246 242 237 242 238 220 212 220 226 225 223 229 224 227 223 230 241 247 246 240 241 245 256 252 246
85 95 109 123 128 133 131 127 133 132 127 125 132 134 136 136 135 137 136 133 138 140 138 146 161 165 156 142 142 142 168 181 181 167 116 105 98 102 112 128 131 131 136 147 136 163 169 189 195 191 201 214 204 223 213 240 230 213 220 236 240 228 231 230 235 230 228 230 245 250 245 246 235 231 224 231 239 240 246 246 245 252 254 256 248
122 129 138 136 123 127 123 127 128 130 140 140 145 143 137 142 145 145 139 142 147 151 156 162 166 154 144 158 165 168 180 192 192 178 144 146 139 132 134 158 166 167 179 183 186 176 202 210 200 218 224 222 233 247 277 265 264 264 245 227 240 244 228 224 239 244 246 247 250 248 245 242 240 235 230 235 241 241 249 252 254 250 248 257 262
124 128 140 142 130 129 131 135 139 141 140 137 134 141 144 138 129 130 142 145 145 150 157 158 147 137 159 175 176 176 175 184 169 161 180 177 161 161 174 168 171 170 180 180 191 187 198 202 208 208 221 214 215 234 241 247 249 247 245 243 242 250 246 242 235 244 244 243 245 247 246 242 242 237 245 239 244 247 251 251 254 253 250 253 255
132 136 138 134 142 137 134 134 128 134 127 124 135 137 135 139 141 144 146 149 153 151 147 144 144 160 179 176 174 174 167 159 151 159 154 161 168 168 151 142 156 170 183 190 180 192 184 182 198 204 209 212 206 208 197 207 218 225 227 230 233 234 237 237 230 223 221 240 235 236 244 245 250 253 255 255 254 252 249 243 246 248 248 256 254
135 131 130 133 142 147 138 133 134 133 134 137 130 130 131 134 137 143 145 152 155 158 155 153 154 162 171 169 172 168 147 151 155 165 169 171 173 156 153 159 150 142 139 123 150 178 198 204 209 212 211 219 215 220 223 233 218 226 228 226 230 230 237 242 241 225 215 227 240 239 236 246 253 256 256 248 241 242 243 246 247 251 252 252 255
125 119 119 116 113 99 105 121 130 125 119 116 118 127 132 134 142 149 155 156 163 165 162 157 154 157 147 134 118 127 152 159 172 174 165 169 169 170 152 142 152 169 188 193 196 194 205 210 224 226 219 227 232 225 245 245 233 233 239 238 235 235 238 237 237 231 229 234 243 250 248 248 246 249 253 249 242 240 245 243 245 248 253 257 257
116 126 127 124 120 120 121 111 112 114 123 125 130 130 145 149 156 161 160 162 164 165 162 153 151 153 150 149 159 164 161 160 152 146 160 173 174 177 174 175 185 198 199 201 181 168 203 211 221 223 226 227 205 210 223 232 225 232 234 234 238 237 235 230 229 229 226 224 247 252 251 246 246 242 242 246 238 239 248 246 245 248 251 251 253
121 121 115 117 119 117 122 126 129 131 142 144 145 149 158 159 160 161 169 165 165 165 158 157 158 160 163 162 161 160 158 146 159 155 169 177 195 198 190 191 186 191 202 200 174 186 207 208 215 222 222 223 208 213 218 216 219 225 227 234 237 246 254 258 249 231 232 238 242 243 246 247 246 245 246 248 246 243 248 249 247 247 250 255 255
108 113 113 119 125 127 126 129 138 144 143 145 148 147 158 164 163 164 170 171 165 156 156 161 162 171 166 165 165 167 154 167 179 183 196 201 199 194 189 182 184 201 204 203 205 207 204 213 218 218 226 235 228 220 233 235 227 223 220 228 235 242 250 252 246 233 243 241 239 242 243 244 242 242 237 232 243 245 244 246 245 246 246 249 253
111 119 125 123 127 135 143 142 145 149 143 151 155 157 154 154 162 169 163 163 168 164 155 153 166 159 157 164 163 164 174 177 184 194 191 197 209 207 198 194 204 216 200 201 199 207 211 213 213 218 227 227 230 234 228 229 235 231 232 230 230 231 235 232 247 244 237 243 239 238 238 239 244 241 240 233 236 242 246 250 249 248 246 245 248
125 129 135 151 153 150 154 158 153 163 160 152 150 161 160 164 170 165 167 166 161 164 167 166 166 164 173 174 168 172 173 181 192 199 202 206 201 206 199 205 209 215 224 223 207 203 210 217 209 217 219 231 230 231 236 234 236 236 233 238 229 225 235 238 242 252 244 239 240 234 234 236 236 241 240 241 239 240 243 248 250 253 253 252 250
128 132 135 141 146 150 147 145 149 146 144 157 159 156 159 162 163 169 163 161 160 166 173 172 171 178 178 177 179 185 184 198 204 204 208 208 204 198 200 196 202 218 223 228 223 212 217 218 210 220 223 227 233 234 240 237 235 236 236 234 243 246 245 242 240 239 233 233 230 228 224 228 231 234 238 235 235 238 243 246 246 247 248 249 249
111 124 132 137 134 134 137 147 152 160 163 166 165 160 161 166 166 159 164 171 179 180 177 184 180 175 188 191 179 189 199 207 209 206 208 210 204 197 206 203 211 217 226 223 229 223 216 216 222 217 217 221 226 233 236 239 236 235 240 246 249 250 248 246 244 240 233 233 233 229 222 219 220 227 233 233 231 233 235 239 242 243 246 249 248